Theta_e
332 333 336 336 335 336 337 337 338 340 340 335 334 333 332 331 331 331 330 330 330 329 329 331 332 324 325 325 324 332 332 326 325 328 324 325 327 327 329 334 335 335 337
326 328 329 329 331 332 332 334 336 337 339 339 338 335 333 331 330 331 331 329 328 328 328 327 326 328 331 327 327 328 323 329 328 328 325 322 323 324 325 328 331 333 332
319 321 323 323 322 323 324 325 327 330 334 336 337 337 338 336 334 330 331 331 329 326 326 325 324 323 324 327 328 327 326 324 324 327 323 322 323 325 326 327 329 330 331
315 316 317 317 316 316 317 318 318 320 322 326 329 333 335 336 336 338 337 337 335 334 332 329 326 327 327 328 325 331 330 328 326 327 321 323 325 324 324 325 325 326 330
313 314 314 315 315 315 315 315 316 316 316 317 318 322 322 326 332 336 335 336 336 335 334 334 331 330 330 331 332 332 331 332 332 331 328 321 325 325 325 325 324 324 323
313 313 313 314 314 314 315 316 316 316 316 316 317 317 317 319 324 326 331 333 333 332 331 331 332 332 333 333 333 334 335 335 336 335 334 329 326 326 325 326 325 325 324
312 313 313 313 314 314 315 315 315 316 316 316 316 317 316 317 318 327 329 330 329 329 328 328 328 328 328 326 326 325 325 325 326 329 330 332 331 329 328 329 327 325 325
311 312 312 313 314 314 315 315 315 315 315 316 316 316 320 319 323 325 326 325 325 324 325 324 324 323 322 322 319 319 320 321 322 323 324 324 325 329 330 329 329 328 327
311 311 312 313 314 314 315 315 315 316 316 317 316 316 319 321 317 317 318 320 318 322 323 323 322 321 320 319 317 317 314 313 317 319 319 321 323 325 326 326 327 327 327
311 311 311 312 313 313 314 315 315 315 314 315 315 316 315 315 316 319 317 317 317 317 321 321 320 318 316 315 313 312 310 309 313 312 314 318 320 323 324 323 323 323 325
310 310 310 312 313 313 315 315 315 316 315 315 314 315 315 316 316 318 320 317 316 319 319 319 319 316 315 314 314 312 309 308 306 307 310 313 318 319 319 320 320 321 322
309 309 310 312 313 313 313 314 313 313 313 314 314 315 314 313 313 314 315 316 318 318 316 315 316 314 312 311 311 309 310 307 306 308 309 310 312 314 316 317 317 318 318
308 309 310 311 312 312 312 312 311 311 311 311 311 312 312 311 313 314 314 315 316 315 314 313 313 312 310 310 310 307 308 305 304 303 302 304 308 310 311 312 315 316 316
308 309 310 311 311 310 310 310 310 309 310 310 310 310 309 309 309 309 310 311 313 312 313 314 311 311 309 308 308 307 308 306 304 302 301 301 301 306 309 310 311 313 313
308 309 310 310 309 307 306 306 305 306 307 307 307 307 307 306 307 307 307 308 308 310 310 309 308 308 308 307 308 307 308 307 304 304 302 301 302 303 305 308 310 310 311
307 308 308 308 308 308 307 305 305 306 306 306 306 306 306 306 305 304 305 306 306 307 308 306 307 307 308 307 307 307 307 306 306 304 303 302 305 304 304 303 305 308 309
306 307 307 307 307 308 307 306 305 305 305 305 305 305 305 305 305 305 305 305 305 306 307 305 304 304 305 306 306 306 306 306 305 305 303 302 303 303 304 305 305 306 307
304 303 305 306 307 308 308 307 306 305 305 305 305 305 304 304 305 305 304 305 305 304 305 305 304 305 305 304 304 303 304 304 304 304 303 302 302 302 302 303 305 306 306
305 302 303 304 306 308 308 307 306 306 306 305 305 305 305 304 304 304 304 304 304 304 304 304 304 304 304 304 303 303 303 303 302 303 302 303 303 303 302 303 304 305 305
307 304 302 304 305 305 306 305 305 305 306 305 304 304 304 304 304 303 302 302 303 303 304 304 304 304 303 304 303 303 302 302 302 301 302 302 301 303 303 303 304 304 303
308 305 302 303 303 301 299 300 303 304 304 304 305 304 304 302 302 300 301 301 301 301 301 302 303 303 303 303 303 302 302 302 301 302 303 303 303 302 305 304 304 302 302
309 306 302 303 303 301 298 299 299 304 305 304 303 303 302 301 301 299 299 299 300 301 302 302 302 303 303 303 303 302 301 301 303 300 301 302 302 302 304 305 302 300 300
309 306 303 303 304 302 299 299 301 304 303 303 302 302 301 300 300 297 298 299 301 301 302 302 303 303 303 302 302 301 300 300 300 300 300 301 302 303 303 303 301 299 299
308 305 303 304 304 303 299 299 300 303 302 302 302 301 300 299 298 295 297 299 300 301 302 301 301 301 301 300 299 299 299 299 300 300 299 300 301 303 302 302 301 299 299
304 303 303 304 304 304 300 299 300 302 302 301 301 301 299 298 296 294 296 299 300 300 299 298 298 297 297 298 299 299 299 298 300 299 299 299 301 301 301 302 301 299 298
304 303 303 304 303 304 303 299 299 301 301 301 301 300 299 297 296 296 296 298 298 298 297 298 299 300 300 299 297 297 297 298 299 299 299 298 299 301 300 301 301 300 300
Wind_Speed
10 9 8 7 8 10 11 10 9 10 11 9 9 9 11 10 8 8 5 5 1 7 10 7 9 9 10 15 11 14 18 17 18 19 18 17 17 18 19 20 21 21 18
10 9 9 9 9 10 11 11 11 11 12 13 13 13 13 12 12 11 11 12 15 18 18 15 15 12 14 17 21 21 23 16 19 22 18 17 17 18 18 19 20 20 18
12 11 10 10 11 12 12 12 13 12 13 13 14 15 16 16 16 14 12 12 13 16 15 9 11 12 14 16 23 23 24 24 30 24 21 20 19 19 19 18 18 18 16
13 11 11 11 14 12 13 14 15 15 15 15 16 16 17 18 18 19 19 19 20 18 18 21 20 22 27 27 25 31 27 29 29 25 23 22 21 21 20 20 19 19 20
13 12 11 12 14 13 13 14 15 16 17 17 20 19 19 20 19 18 17 15 14 12 12 10 14 22 23 25 28 25 22 23 25 24 22 23 22 22 21 21 21 21 21
13 13 11 13 14 13 14 15 16 15 16 16 19 21 21 20 18 18 13 12 8 4 3 3 6 9 7 6 6 3 3 6 10 13 20 21 24 23 23 23 23 23 22
14 14 13 13 14 13 14 15 15 15 13 13 17 17 18 19 16 7 6 3 2 1 1 2 1 1 2 4 6 4 8 7 8 4 3 11 21 23 23 24 24 23 24
13 13 13 12 13 12 12 14 14 16 12 13 15 17 6 9 2 8 6 7 8 7 4 5 4 3 3 3 6 6 11 11 11 11 10 9 9 16 22 24 24 25 27
13 12 12 12 12 11 12 12 13 14 15 14 12 9 6 6 14 6 10 7 9 9 6 2 1 3 4 4 6 8 10 11 12 12 13 12 13 12 12 13 17 22 26
11 11 11 10 10 10 11 11 10 10 13 14 12 13 6 7 4 6 10 8 8 8 5 7 4 3 6 6 8 9 13 14 14 14 14 14 13 12 13 11 15 21 23
9 11 11 11 11 11 11 11 11 12 10 10 9 11 12 12 14 11 8 14 12 11 7 6 5 4 5 8 9 10 14 14 14 15 14 13 11 12 11 15 12 13 13
10 10 10 11 10 11 11 10 11 10 11 13 12 9 7 3 9 5 3 11 12 10 9 7 6 6 8 10 10 13 10 12 11 12 13 14 13 14 13 14 16 17 16
11 11 10 10 11 11 11 11 11 11 12 12 13 12 9 9 8 9 12 11 11 13 10 7 4 4 9 11 11 15 10 12 12 12 13 13 13 14 15 16 16 15 14
11 10 10 10 11 12 12 12 12 13 13 12 14 15 13 12 13 12 12 13 9 10 5 6 7 5 10 10 10 13 10 9 14 14 15 15 15 15 15 15 16 18 16
12 11 10 11 13 13 14 12 13 13 12 12 13 14 14 13 12 12 12 13 12 10 9 2 8 6 10 11 10 12 13 12 18 14 17 17 17 16 16 16 16 16 19
14 14 13 12 12 13 14 14 13 14 13 13 13 14 15 16 13 13 13 13 13 13 9 16 14 10 13 17 12 15 15 17 13 13 15 19 16 16 16 17 16 16 18
12 12 11 9 10 11 12 11 11 12 13 13 14 14 14 14 15 15 13 13 13 15 12 18 18 18 17 16 17 17 17 17 17 11 13 20 17 16 15 15 15 15 15
12 11 10 10 10 9 8 10 10 11 12 13 14 14 15 16 16 14 17 14 10 12 13 15 16 16 11 13 13 18 16 17 18 19 18 19 15 17 16 14 13 12 11
11 13 10 10 10 10 8 9 10 12 13 14 14 15 16 16 16 18 18 17 19 16 19 17 18 17 16 11 16 17 15 15 18 22 19 15 15 18 17 14 9 8 6
9 12 11 10 10 11 11 12 13 13 14 15 15 15 15 16 16 17 19 20 21 22 20 16 16 19 15 13 16 20 22 16 15 20 18 17 17 20 18 12 7 6 6
7 10 12 10 10 10 13 14 14 14 14 15 16 16 17 14 18 20 19 21 21 22 24 22 19 18 17 18 15 14 23 22 18 19 19 17 19 18 11 8 7 7 10
6 8 11 11 11 11 15 16 16 13 14 15 16 17 18 16 20 23 23 24 22 21 21 21 22 20 20 21 18 16 21 23 13 19 21 23 19 16 12 7 6 11 15
4 6 8 8 9 10 15 16 15 13 14 15 16 17 20 21 20 25 26 23 20 19 11 13 19 21 22 20 21 20 24 24 25 20 19 23 19 13 9 5 7 10 10
5 6 6 6 8 9 13 14 15 12 15 14 14 16 18 21 21 24 25 24 22 20 14 17 19 22 23 24 23 23 25 27 23 14 15 18 21 15 12 8 8 7 9
5 4 3 5 7 8 12 14 16 15 15 15 13 15 13 21 24 25 24 25 23 22 20 21 21 23 22 22 20 16 18 18 16 17 15 12 11 14 14 10 3 6 8
5 4 3 4 7 8 11 13 14 16 16 18 15 14 11 21 24 25 23 23 27 26 26 23 20 16 16 15 11 12 14 15 14 8 7 9 13 9 6 5 6 8 7
Wind_Direction
5 358 343 338 340 335 332 327 325 310 300 292 282 286 284 272 262 252 240 190 110 344 351 327 336 301 293 295 291 294 285 269 261 252 235 236 235 237 240 243 241 233 231
357 349 343 343 342 341 338 332 327 318 306 297 287 284 283 278 274 265 262 248 247 283 285 287 302 311 294 280 291 300 276 275 273 256 246 242 239 234 230 231 230 232 228
353 343 336 338 337 334 333 331 331 326 315 305 298 292 289 275 272 268 271 271 260 246 239 251 256 277 277 272 263 266 263 252 261 260 251 241 236 234 231 228 227 230 227
350 345 336 335 333 334 332 333 331 324 315 309 302 297 293 285 280 274 272 267 257 256 257 246 255 259 259 256 253 257 243 244 247 253 246 240 235 233 230 231 227 223 222
350 349 338 337 343 337 338 338 331 325 317 310 300 296 291 285 281 280 281 276 269 266 264 268 267 247 245 248 254 257 256 254 256 252 249 246 240 235 232 230 228 228 224
350 350 343 343 347 344 346 344 337 329 317 312 307 299 288 281 281 283 285 292 278 256 264 253 250 174 166 168 175 169 227 253 245 253 255 249 245 240 240 239 231 228 228
352 353 350 346 351 350 352 349 343 336 331 336 316 316 299 277 267 302 334 351 7 81 84 94 92 287 341 331 314 345 14 9 12 335 293 237 243 247 245 242 243 239 236
357 356 354 352 351 350 1 0 0 351 349 353 343 314 319 321 110 29 19 8 10 7 25 39 59 46 25 341 353 352 11 14 8 352 328 307 295 252 243 249 250 245 244
356 357 357 357 355 360 9 10 14 14 1 1 2 5 340 8 338 331 327 305 324 308 292 304 18 37 24 5 360 357 346 337 346 346 331 324 303 283 277 268 261 258 255
356 0 0 2 11 10 16 17 14 12 15 16 5 7 354 316 332 324 329 325 317 290 324 311 314 21 8 359 354 352 344 336 332 324 325 328 317 291 283 282 275 271 266
356 4 5 10 18 18 16 20 10 16 6 12 15 357 353 1 14 320 330 338 334 356 356 359 355 22 5 348 338 342 342 334 328 329 323 319 313 299 291 282 285 293 285
356 7 6 11 13 13 15 11 13 17 13 8 7 14 28 4 347 334 307 321 319 339 344 356 14 359 346 339 333 341 338 335 338 335 330 321 306 299 294 290 278 271 270
0 359 5 11 14 14 15 11 14 13 13 13 9 357 358 354 341 333 331 327 318 320 319 331 342 15 338 332 332 337 321 335 336 333 328 321 314 306 296 289 284 275 271
19 11 16 23 24 26 27 25 26 20 21 19 19 15 1 3 356 349 336 328 327 327 325 346 324 351 345 331 317 330 309 320 325 323 325 320 312 301 295 288 280 273 266
30 29 36 42 45 37 27 20 24 18 15 15 14 7 356 357 351 349 346 343 338 334 332 135 344 346 340 330 322 325 311 314 315 317 324 321 315 304 291 285 280 274 256
40 44 48 46 41 32 27 28 32 33 34 30 27 22 15 9 358 351 342 336 332 330 318 330 342 340 329 322 319 320 316 310 299 300 316 324 315 315 306 287 279 273 266
32 31 31 25 22 23 29 33 34 32 29 24 18 13 12 8 1 1 346 350 333 342 323 335 325 341 325 329 325 324 319 318 309 306 313 319 304 309 307 302 288 279 273
30 23 21 21 22 18 18 19 16 15 11 6 2 0 0 358 353 359 345 354 338 324 322 316 327 318 332 322 328 321 321 320 318 313 315 308 302 306 301 297 295 273 264
29 23 23 24 21 20 18 12 5 360 357 357 357 352 350 349 346 345 336 336 331 328 320 311 309 314 321 321 317 316 321 328 331 320 324 316 305 307 298 292 283 261 245
20 22 23 26 27 29 22 6 358 354 353 354 352 347 349 353 350 344 337 330 332 323 304 302 305 305 304 330 335 331 321 328 329 317 308 303 305 302 283 274 256 254 255
16 18 21 22 23 27 11 2 357 355 354 349 350 351 353 349 353 353 342 335 326 323 318 311 306 309 311 329 319 324 317 322 321 316 315 305 311 299 283 253 221 256 286
13 17 23 31 32 32 9 6 359 356 356 2 357 353 344 351 348 344 337 327 316 311 312 312 307 312 315 316 322 326 317 312 316 315 314 309 303 292 297 272 231 295 303
19 17 22 27 24 20 13 15 17 3 2 1 358 356 349 351 350 344 339 332 330 322 302 319 305 309 313 313 320 317 310 310 306 311 312 305 300 303 294 294 272 307 318
25 16 17 18 18 14 5 7 358 358 11 358 355 356 352 351 348 346 340 335 333 329 333 323 311 310 309 310 305 302 304 296 298 305 297 300 302 303 293 290 290 294 304
14 13 18 15 11 6 357 1 3 342 5 347 351 357 349 352 345 345 341 335 331 328 324 320 313 307 304 306 307 302 313 311 306 309 310 295 308 318 307 291 241 296 333
29 10 4 351 338 345 333 354 357 343 355 342 350 356 355 353 346 350 345 339 336 327 323 320 316 335 332 321 313 301 306 300 300 304 313 328 309 322 313 289 313 317 292